Location: ????????
(60.4333°N, 46.4710°E)
Time: 03:26:55
(UTC+00:00)

Meteor 1-28 Rocket - Pass Details

Date: 25 November 2020
Orbit: 502 x 523 km, 97.3° (Epoch: 19 January)

Event Time Altitude Azimuth Distance (km) Brightness Sun altitude
Exits shadow 13:35:40 - 12° (NNE) 2,502 6.3 -10.4°
Reaches altitude 10° 13:37:26 10° 7° (N) 1,776 5.6 -10.6°
Maximum altitude 13:41:05 44° 295° (WNW) 737 4.3 -11.0°
Drops below altitude 10° 13:44:41 10° 223° (SW) 1,755 7.0 -11.4°
Sets 13:46:50 0° 217° (SW) 2,635 7.9 -11.6°
